Meridian, MS

2:36 PM CDT on October 20, 2017 (GMT -0500)
Key

Weather History for KMEI - November, 2012

Change the Weather History Date:

Wednesday, November 7, 2012

  Actual Average Record
Temperature  
Mean Temperature 50 °F 57 °F  
Max Temperature 63 °F 71 °F 86 °F (2005)
Min Temperature 37 °F 44 °F 26 °F (1959)
Degree Days  
Heating Degree Days 15 9  
Month to date heating degree days 63 55  
Since 1 July heating degree days 184 179  
Cooling Degree Days 0 1  
Month to date cooling degree days 2 7  
Year to date cooling degree days 2175 2020  
Moisture  
Dew Point 39 °F    
Average Humidity 68    
Maximum Humidity 100    
Minimum Humidity 36    
Precipitation  
Precipitation T in 0.15 in 3.20 in (1943)
Month to date precipitation 0.52 1.03  
Year to date precipitation 52.47 47.18  
Sea Level Pressure  
Sea Level Pressure 30.05 in    
Wind  
Wind Speed 6 mph (WSW)    
Max Wind Speed 21 mph    
Max Gust Speed 30 mph    
Visibility 5 miles    
Events Fog    
T = Trace of Precipitation, MM = Missing Value Source: NWS Daily Summary

Daily Weather History Graph

Daily Weather History Graph

Search for Another Location

Airport or City:

Trip Planner

Search our weather history database for the weather conditions in past years. The results will help you decide how hot, cold, wet, or windy it might be!

Date:

Astronomy

Nov. 07, 2012 Rise Set
Actual Time 6:17 AM CST 4:59 PM CST
Civil Twilight 5:52 AM CST 5:24 PM CST
Nautical Twilight 5:22 AM CST 5:54 PM CST
Astronomical Twilight 4:53 AM CST 6:23 PM CST
Moon No Moon Rise 12:47 PM CST (11/7)
Length of Visible Light 11h 32m
Length of Day
10h 41m
Last Quarter, 43% of the Moon is Illuminated
Nov 7
Last Quarter
Nov 13
New
Nov 20
First Quarter
Nov 28
Full
Dec 6
Last Quarter

Hourly Weather History & Observations

Time (CST) Temp. Windchill Dew Point Humidity Pressure Visibility Wind Dir Wind Speed Gust Speed Precip Events Conditions
12:04 AM 41.0 °F 37.1 °F 41.0 °F 100% 30.04 in 1.0 mi SSW 5.8 mph - N/A   Mist
12:11 AM 41.0 °F 38.0 °F 41.0 °F 100% 30.04 in 0.5 mi SSW 4.6 mph - N/A Fog Fog
12:17 AM 42.8 °F 41.1 °F 42.8 °F 100% 30.04 in 1.5 mi SSW 3.5 mph - N/A   Partly Cloudy
12:20 AM 42.8 °F - 42.8 °F 100% 30.04 in 3.0 mi Calm Calm - N/A   Partly Cloudy
12:58 AM 41.0 °F 39.0 °F 39.9 °F 96% 30.03 in 7.0 mi South 3.5 mph - N/A   Scattered Clouds
1:58 AM 39.9 °F 37.8 °F 39.9 °F 100% 30.02 in 5.0 mi South 3.5 mph - N/A   Scattered Clouds
2:51 AM 39.2 °F 35.9 °F 39.2 °F 100% 30.02 in 4.0 mi South 4.6 mph - N/A   Scattered Clouds
2:58 AM 39.0 °F 36.8 °F 39.0 °F 100% 30.03 in 2.5 mi South 3.5 mph - N/A   Mostly Cloudy
3:14 AM 39.2 °F - 39.2 °F 100% 30.02 in 5.0 mi Calm Calm - N/A   Mostly Cloudy
3:42 AM 39.2 °F - 39.2 °F 100% 30.02 in 2.5 mi Calm Calm - N/A   Mostly Cloudy
3:49 AM 37.4 °F 34.9 °F 37.4 °F 100% 30.02 in 1.0 mi South 3.5 mph - N/A   Mist
3:56 AM 37.4 °F 34.9 °F 37.4 °F 100% 30.02 in 0.5 mi South 3.5 mph - N/A Fog Fog
3:58 AM 37.9 °F 35.5 °F 37.9 °F 100% 30.02 in 0.5 mi SSW 3.5 mph - N/A Fog Fog
4:21 AM 37.4 °F 33.8 °F 37.4 °F 100% 30.03 in 1.0 mi South 4.6 mph - N/A   Mist
4:28 AM 37.4 °F 34.9 °F 37.4 °F 100% 30.03 in 0.8 mi South 3.5 mph - N/A   Mist
4:39 AM 37.4 °F 34.9 °F 37.4 °F 100% 30.02 in 2.5 mi South 3.5 mph - N/A   Mostly Cloudy
4:47 AM 37.4 °F 34.9 °F 37.4 °F 100% 30.02 in 0.8 mi SSW 3.5 mph - N/A   Mist
4:58 AM 37.0 °F 33.3 °F 37.0 °F 100% 30.03 in 0.5 mi SSW 4.6 mph - N/A Fog Fog
5:12 AM 37.4 °F - 37.4 °F 100% 30.03 in 0.5 mi Calm Calm - N/A Fog Fog
5:26 AM 37.4 °F - 37.4 °F 100% 30.03 in 0.5 mi Calm Calm - N/A Fog Fog
5:54 AM 37.4 °F - 37.4 °F 100% 30.04 in 0.8 mi Calm Calm - N/A   Mist
5:58 AM 37.9 °F - 37.9 °F 100% 30.04 in 1.2 mi Calm Calm - N/A   Overcast
6:02 AM 37.4 °F - 37.4 °F 100% 30.04 in 3.0 mi Calm Calm - N/A   Overcast
6:06 AM 37.4 °F - 37.4 °F 100% 30.04 in 2.5 mi Calm Calm - N/A   Overcast
6:22 AM 37.4 °F - 37.4 °F 100% 30.04 in 4.0 mi Calm Calm - N/A   Overcast
6:25 AM 37.4 °F - 37.4 °F 100% 30.05 in 1.5 mi Calm Calm - N/A   Overcast
6:28 AM 37.4 °F - 37.4 °F 100% 30.05 in 0.2 mi Calm Calm - N/A Fog Fog
6:42 AM 39.2 °F - 39.2 °F 100% 30.05 in 0.2 mi Calm Calm - N/A Fog Fog
6:53 AM 39.2 °F 37.0 °F 39.2 °F 100% 30.05 in 0.2 mi SW 3.5 mph - N/A Fog Fog
6:58 AM 39.0 °F - 39.0 °F 100% 30.06 in 0.2 mi Calm Calm - N/A Fog Fog
7:58 AM 41.0 °F - 41.0 °F 100% 30.07 in 0.2 mi Calm Calm - N/A Fog Fog
8:07 AM 42.8 °F - 42.8 °F 100% 30.07 in 0.2 mi Calm Calm - N/A Fog Fog
8:16 AM 42.8 °F - 42.8 °F 100% 30.07 in 1.0 mi Calm Calm - N/A   Mist
8:23 AM 44.6 °F - 44.6 °F 100% 30.07 in 3.0 mi Calm Calm - N/A   Mostly Cloudy
8:37 AM 46.4 °F - 44.6 °F 93% 30.07 in 9.0 mi Calm Calm - N/A   Scattered Clouds
8:58 AM 46.0 °F - 46.0 °F 100% 30.07 in 10.0 mi Calm Calm - 0.00 in   Partly Cloudy
9:58 AM 57.0 °F - 46.0 °F 67% 30.05 in 10.0 mi North 3.5 mph - N/A   Clear
10:58 AM 60.1 °F - 37.9 °F 44% 30.04 in 10.0 mi NW 15.0 mph 19.6 mph N/A   Clear
11:58 AM 62.1 °F - 37.0 °F 39% 30.01 in 10.0 mi WNW 13.8 mph 21.9 mph N/A   Clear
12:58 PM 62.1 °F - 35.1 °F 37% 29.99 in 10.0 mi NW 12.7 mph 24.2 mph N/A   Partly Cloudy
1:58 PM 62.1 °F - 35.1 °F 37% 29.98 in 10.0 mi NW 17.3 mph 25.3 mph N/A   Clear
2:58 PM 63.0 °F - 36.0 °F 37% 29.99 in 10.0 mi NNW 15.0 mph 23.0 mph N/A   Scattered Clouds
3:58 PM 59.0 °F - 36.0 °F 42% 30.01 in 10.0 mi NW 9.2 mph 18.4 mph N/A   Overcast
4:58 PM 57.0 °F - 37.9 °F 49% 30.05 in 10.0 mi North 11.5 mph - N/A   Overcast
5:58 PM 53.1 °F - 37.9 °F 57% 30.09 in 10.0 mi North 11.5 mph - N/A   Mostly Cloudy
6:58 PM 48.9 °F - 39.0 °F 69% 30.11 in 10.0 mi North 8.1 mph - N/A   Clear
7:58 PM 46.9 °F - 37.9 °F 71% 30.14 in 10.0 mi North 9.2 mph - N/A   Clear
8:58 PM 45.0 °F 40.6 °F 37.0 °F 74% 30.15 in 10.0 mi North 8.1 mph - N/A   Clear
9:58 PM 43.0 °F - 37.9 °F 82% 30.16 in 10.0 mi Calm Calm - N/A   Clear
10:58 PM 37.9 °F - 37.0 °F 97% 30.16 in 10.0 mi Calm Calm - N/A   Clear
11:58 PM 37.0 °F - 36.0 °F 96% 30.17 in 10.0 mi Calm Calm - N/A   Clear